User: anonymous   Login
Location: Holcomb Observatory
(44.4922°N, 73.1654°W)
Time: 07:16:32
(UTC-04:00)
Language:

Cosmos 1727 Rocket - Orbit

View from above orbital plane
View from above orbital plane
View from above satellite
View from above satellite

Ground track
Ground track

The orbit data is extracted from the following two-line orbital elements,

1 16511U 86008B   17083.96310396 -.00000043 +00000-0 -60114-4 0  9997
2 16511 082.9408 282.3771 0024689 155.3199 312.5780 13.75810985564434
Epoch (UTC): 24 March 2017 23:06:52
Eccentricity: 0.0024689
inclination: 82.9408°
perigee height: 960 km
apogee height: 997 km
right ascension of ascending node: 282.3771°
argument of perigee: 155.3199°
revolutions per day: 13.75810985
mean anomaly at epoch: 312.5780°
orbit number at epoch: 56443

The dashed part of the orbit path shows where the satellite is in the earth's shadow,  

DLR